| time (UTC) | temp C | wind direction | speed KPH | gust KPH | rain 1hr cm | rain 24hr cm | rain mn cm | humidity % | barometer mb |
| 20260506184405 | 12 | 335 | 8.0 | 17.7 | 0.00 | 0.00 | 0.00 | 78 | 1010.4 |
| 20260506183405 | 12 | 339 | 9.7 | 17.7 | 0.00 | 0.00 | 0.00 | 78 | 1010.3 |
| 20260506182404 | 12 | 306 | 11.3 | 22.5 | 0.00 | 0.00 | 0.00 | 77 | 1010.2 |
| 20260506181410 | 12 | 329 | 9.7 | 20.9 | 0.00 | 0.00 | 0.00 | 77 | 1010.1 |
| 20260506180404 | 13 | 302 | 9.7 | 19.3 | 0.00 | 0.00 | 0.00 | 78 | 1009.9 |
| 20260506175404 | 13 | 16 | 11.3 | 22.5 | 0.00 | 0.00 | 0.00 | 79 | 1009.8 |
| 20260506174414 | 13 | 342 | 12.9 | 25.7 | 0.00 | 0.00 | 0.00 | 79 | 1009.8 |
| 20260506173405 | 13 | 304 | 14.5 | 25.7 | 0.00 | 0.00 | 0.00 | 79 | 1009.7 |
| 20260506172410 | 13 | 320 | 12.9 | 22.5 | 0.00 | 0.00 | 0.00 | 78 | 1009.6 |
| 20260506171404 | 13 | 304 | 12.9 | 24.1 | 0.00 | 0.00 | 0.00 | 77 | 1009.5 |
| 20260506170415 | 13 | 335 | 14.5 | 29.0 | 0.00 | 0.00 | 0.00 | 77 | 1009.5 |
| 20260506165404 | 13 | 355 | 14.5 | 24.1 | 0.00 | 0.00 | 0.00 | 77 | 1009.5 |
| 20260506164405 | 13 | 327 | 16.1 | 27.4 | 0.00 | 0.00 | 0.00 | 77 | 1009.4 |
| 20260506163405 | 13 | 327 | 14.5 | 24.1 | 0.00 | 0.00 | 0.00 | 77 | 1009.4 |
| 20260506162404 | 13 | 0 | 12.9 | 25.7 | 0.00 | 0.00 | 0.00 | 78 | 1009.3 |
| 20260506161404 | 13 | 350 | 12.9 | 25.7 | 0.00 | 0.00 | 0.00 | 77 | 1009.3 |
| 20260506160404 | 13 | 355 | 14.5 | 29.0 | 0.00 | 0.00 | 0.00 | 79 | 1009.4 |
| 20260506155404 | 13 | 16 | 12.9 | 24.1 | 0.00 | 0.00 | 0.00 | 78 | 1009.4 |
| 20260506154404 | 13 | 315 | 14.5 | 25.7 | 0.00 | 0.00 | 0.00 | 78 | 1009.3 |
| 20260506153842 | 13 | 15 | 12.9 | 25.7 | 0.00 | 0.00 | 0.00 | 78 | 1009.4 |
| 20260506152404 | 13 | 309 | 14.5 | 25.7 | 0.00 | 0.00 | 0.00 | 79 | 1009.4 |
| 20260506151404 | 13 | 5 | 12.9 | 24.1 | 0.00 | 0.00 | 0.00 | 79 | 1009.4 |
| 20260506150414 | 13 | 324 | 12.9 | 24.1 | 0.00 | 0.00 | 0.00 | 79 | 1009.4 |
| 20260506145404 | 13 | 355 | 11.3 | 24.1 | 0.00 | 0.00 | 0.00 | 79 | 1009.5 |
| 20260506144840 | 13 | 298 | 12.9 | 22.5 | 0.00 | 0.00 | 0.00 | 80 | 1009.4 |
| 20260506143404 | 13 | 341 | 14.5 | 27.4 | 0.00 | 0.00 | 0.00 | 79 | 1009.4 |
| 20260506142404 | 13 | 327 | 14.5 | 25.7 | 0.00 | 0.00 | 0.00 | 79 | 1009.4 |
| 20260506141404 | 13 | 349 | 14.5 | 25.7 | 0.00 | 0.00 | 0.00 | 78 | 1009.4 |
| 20260506141316 | 13 | 323 | 12.9 | 27.4 | 0.00 | 0.00 | 0.00 | 78 | 1009.4 |
| 20260506135404 | 13 | 323 | 14.5 | 27.4 | 0.00 | 0.00 | 0.00 | 78 | 1009.5 |
| 20260506134404 | 13 | 355 | 12.9 | 24.1 | 0.00 | 0.00 | 0.00 | 78 | 1009.5 |
| 20260506134334 | 13 | 310 | 14.5 | 25.7 | 0.00 | 0.00 | 0.00 | 78 | 1009.5 |
| 20260506132404 | 13 | 340 | 14.5 | 25.7 | 0.00 | 0.00 | 0.00 | 77 | 1009.5 |
| 20260506131404 | 13 | 317 | 14.5 | 29.0 | 0.00 | 0.00 | 0.00 | 77 | 1009.4 |
| 20260506130404 | 13 | 351 | 16.1 | 24.1 | 0.00 | 0.00 | 0.00 | 76 | 1009.3 |
| 20260506125409 | 13 | 309 | 14.5 | 25.7 | 0.00 | 0.00 | 0.00 | 76 | 1009.1 |
| 20260506124403 | 13 | 311 | 16.1 | 29.0 | 0.00 | 0.00 | 0.00 | 76 | 1009.1 |
| 20260506123404 | 13 | 348 | 16.1 | 29.0 | 0.00 | 0.00 | 0.00 | 76 | 1009.1 |
| 20260506122404 | 13 | 319 | 16.1 | 29.0 | 0.00 | 0.00 | 0.00 | 75 | 1009.0 |
| 20260506121403 | 13 | 5 | 14.5 | 29.0 | 0.00 | 0.00 | 0.00 | 75 | 1009.0 |
| 20260506120404 | 13 | 329 | 12.9 | 29.0 | 0.00 | 0.00 | 0.00 | 75 | 1009.0 |
| 20260506115403 | 13 | 317 | 16.1 | 27.4 | 0.00 | 0.00 | 0.00 | 75 | 1008.9 |
| 20260506114404 | 13 | 329 | 12.9 | 25.7 | 0.00 | 0.00 | 0.00 | 75 | 1009.0 |
| 20260506113408 | 13 | 342 | 12.9 | 24.1 | 0.00 | 0.00 | 0.00 | 76 | 1009.0 |
| 20260506112409 | 13 | 9 | 14.5 | 24.1 | 0.00 | 0.00 | 0.00 | 77 | 1009.0 |
| 20260506111403 | 13 | 346 | 14.5 | 24.1 | 0.00 | 0.00 | 0.00 | 76 | 1008.8 |
| 20260506110857 | 13 | 309 | 12.9 | 22.5 | 0.00 | 0.00 | 0.00 | 76 | 1009.0 |
| 20260506105842 | 13 | 5 | 12.9 | 22.5 | 0.00 | 0.00 | 0.00 | 77 | 1009.0 |
| 20260506104403 | 13 | 326 | 14.5 | 25.7 | 0.00 | 0.00 | 0.00 | 77 | 1009.0 |
| 20260506103837 | 13 | 336 | 14.5 | 24.1 | 0.00 | 0.00 | 0.00 | 77 | 1009.1 |
| 20260506102406 | 13 | 348 | 14.5 | 24.1 | 0.00 | 0.00 | 0.00 | 77 | 1008.9 |
| 20260506101403 | 13 | 5 | 14.5 | 27.4 | 0.00 | 0.00 | 0.00 | 77 | 1008.8 |
| 20260506101320 | 13 | 355 | 14.5 | 29.0 | 0.00 | 0.00 | 0.00 | 77 | 1008.7 |
| 20260506095403 | 13 | 329 | 16.1 | 29.0 | 0.00 | 0.00 | 0.00 | 78 | 1008.7 |
| 20260506094844 | 13 | 348 | 16.1 | 27.4 | 0.00 | 0.00 | 0.00 | 77 | 1008.8 |
| 20260506093843 | 13 | 348 | 12.9 | 25.7 | 0.00 | 0.00 | 0.00 | 78 | 1008.8 |
| 20260506092408 | 12 | 355 | 14.5 | 29.0 | 0.00 | 0.00 | 0.00 | 77 | 1008.8 |
| 20260506091403 | 12 | 321 | 14.5 | 29.0 | 0.00 | 0.00 | 0.00 | 78 | 1008.7 |
| 20260506090409 | 12 | 320 | 14.5 | 25.7 | 0.00 | 0.00 | 0.00 | 79 | 1008.6 |
| 20260506085403 | 12 | 335 | 14.5 | 29.0 | 0.00 | 0.00 | 0.00 | 79 | 1008.6 |
| 20260506084403 | 11 | 341 | 16.1 | 25.7 | 0.00 | 0.00 | 0.00 | 79 | 1008.6 |
| 20260506083842 | 11 | 348 | 12.9 | 25.7 | 0.00 | 0.00 | 0.00 | 80 | 1008.5 |
| 20260506082403 | 11 | 313 | 12.9 | 29.0 | 0.00 | 0.00 | 0.00 | 80 | 1008.4 |
| 20260506081847 | 11 | 333 | 14.5 | 27.4 | 0.00 | 0.00 | 0.00 | 80 | 1008.4 |
| 20260506080403 | 11 | 350 | 12.9 | 27.4 | 0.00 | 0.00 | 0.00 | 79 | 1008.4 |
| 20260506072403 | 11 | 334 | 12.9 | 25.7 | 0.00 | 0.00 | 0.00 | 79 | 1008.2 |
| 20260506071844 | 11 | 9 | 16.1 | 25.7 | 0.00 | 0.00 | 0.00 | 79 | 1008.2 |
| 20260506070844 | 11 | 355 | 12.9 | 27.4 | 0.00 | 0.00 | 0.00 | 79 | 1008.3 |
| 20260506062402 | 11 | 346 | 14.5 | 27.4 | 0.00 | 0.00 | 0.00 | 80 | 1008.0 |
| 20260506061403 | 11 | 44 | 14.5 | 24.1 | 0.00 | 0.00 | 0.00 | 79 | 1008.0 |
| 20260506060849 | 11 | 329 | 16.1 | 29.0 | 0.00 | 0.00 | 0.00 | 79 | 1008.0 |
| 20260506051402 | 11 | 350 | 12.9 | 27.4 | 0.00 | 0.00 | 0.00 | 80 | 1007.8 |
| 20260506050846 | 11 | 338 | 14.5 | 27.4 | 0.00 | 0.00 | 0.00 | 81 | 1007.8 |
| 20260506044403 | 11 | 50 | 14.5 | 24.1 | 0.00 | 0.00 | 0.00 | 81 | 1007.8 |
| 20260506043407 | 11 | 355 | 12.9 | 22.5 | 0.00 | 0.00 | 0.00 | 81 | 1008.0 |
| 20260506042408 | 11 | 339 | 14.5 | 33.8 | 0.00 | 0.00 | 0.00 | 80 | 1007.9 |
| 20260506041403 | 11 | 336 | 16.1 | 27.4 | 0.00 | 0.00 | 0.00 | 80 | 1007.9 |
| 20260506040412 | 11 | 331 | 12.9 | 27.4 | 0.00 | 0.00 | 0.00 | 81 | 1008.0 |
| 20260506035403 | 11 | 306 | 12.9 | 22.5 | 0.00 | 0.00 | 0.00 | 80 | 1008.0 |
| 20260506034402 | 11 | 273 | 12.9 | 24.1 | 0.00 | 0.00 | 0.00 | 80 | 1008.1 |
| 20260506033840 | 11 | 340 | 14.5 | 27.4 | 0.00 | 0.00 | 0.00 | 80 | 1008.1 |
| 20260506032403 | 11 | 340 | 12.9 | 24.1 | 0.00 | 0.00 | 0.00 | 80 | 1008.2 |
| 20260506031846 | 11 | 350 | 11.3 | 20.9 | 0.00 | 0.00 | 0.00 | 80 | 1008.2 |
| 20260506030840 | 11 | 345 | 11.3 | 24.1 | 0.00 | 0.00 | 0.00 | 79 | 1008.2 |
| 20260506025402 | 11 | 338 | 14.5 | 24.1 | 0.00 | 0.00 | 0.00 | 79 | 1008.3 |
| 20260506024403 | 11 | 319 | 12.9 | 24.1 | 0.00 | 0.00 | 0.00 | 79 | 1008.3 |
| 20260506023402 | 11 | 346 | 12.9 | 20.9 | 0.00 | 0.00 | 0.00 | 79 | 1008.4 |
| 20260506022403 | 11 | 340 | 11.3 | 24.1 | 0.00 | 0.00 | 0.00 | 76 | 1008.4 |
| 20260506021402 | 11 | 326 | 12.9 | 25.7 | 0.00 | 0.00 | 0.00 | 76 | 1008.4 |
| 20260506020402 | 11 | 338 | 12.9 | 24.1 | 0.00 | 0.00 | 0.00 | 76 | 1008.5 |
| 20260506015405 | 11 | 348 | 11.3 | 19.3 | 0.00 | 0.00 | 0.00 | 76 | 1008.5 |
| 20260506014402 | 11 | 355 | 11.3 | 22.5 | 0.00 | 0.00 | 0.00 | 76 | 1008.5 |
| 20260506013403 | 11 | 355 | 9.7 | 20.9 | 0.00 | 0.00 | 0.00 | 75 | 1008.6 |
| 20260506012836 | 11 | 314 | 11.3 | 22.5 | 0.00 | 0.00 | 0.00 | 76 | 1008.5 |
| 20260506011850 | 11 | 5 | 11.3 | 20.9 | 0.00 | 0.00 | 0.00 | 76 | 1008.6 |
| 20260506010402 | 11 | 348 | 9.7 | 19.3 | 0.00 | 0.00 | 0.00 | 77 | 1008.7 |
| 20260506005402 | 10 | 34 | 9.7 | 22.5 | 0.00 | 0.00 | 0.00 | 76 | 1008.6 |
| 20260506004402 | 10 | 324 | 11.3 | 25.7 | 0.00 | 0.00 | 0.00 | 76 | 1008.7 |
| 20260506003402 | 11 | 55 | 9.7 | 22.5 | 0.00 | 0.00 | 0.00 | 76 | 1008.7 |
| 20260506002402 | 11 | 331 | 11.3 | 22.5 | 0.00 | 0.00 | 0.00 | 76 | 1008.8 |
| 20260506001402 | 11 | 322 | 9.7 | 22.5 | 0.00 | 0.00 | 0.00 | 76 | 1009.0 |
| 20260506000402 | 11 | 333 | 9.7 | 22.5 | 0.00 | 0.00 | 0.00 | 76 | 1009.0 |
| 20260505235412 | 11 | 316 | 9.7 | 20.9 | 0.00 | 0.00 | 0.00 | 75 | 1009.0 |
| 20260505234402 | 11 | 315 | 11.3 | 20.9 | 0.00 | 0.00 | 0.00 | 76 | 1009.0 |
| 20260505233402 | 11 | 5 | 11.3 | 24.1 | 0.00 | 0.00 | 0.00 | 76 | 1009.0 |
| 20260505232402 | 11 | 319 | 11.3 | 27.4 | 0.00 | 0.00 | 0.00 | 76 | 1009.0 |
| 20260505232316 | 11 | 53 | 9.7 | 27.4 | 0.00 | 0.00 | 0.00 | 76 | 1009.1 |
| 20260505231313 | 11 | 319 | 9.7 | 20.9 | 0.00 | 0.00 | 0.00 | 77 | 1009.2 |
| 20260505225406 | 11 | 333 | 9.7 | 24.1 | 0.00 | 0.00 | 0.00 | 77 | 1009.3 |
| 20260505224400 | 11 | 79 | 8.0 | 25.7 | 0.00 | 0.00 | 0.00 | 77 | 1009.4 |
| 20260505223400 | 11 | 0 | 9.7 | 22.5 | 0.00 | 0.00 | 0.00 | 77 | 1009.3 |
| 20260505222400 | 11 | 318 | 11.3 | 22.5 | 0.00 | 0.00 | 0.00 | 77 | 1009.4 |
| 20260505221400 | 11 | 75 | 12.9 | 24.1 | 0.00 | 0.00 | 0.00 | 76 | 1009.3 |
| 20260505220359 | 11 | 347 | 11.3 | 22.5 | 0.00 | 0.00 | 0.00 | 77 | 1009.4 |
| 20260505215847 | 11 | 0 | 12.9 | 32.2 | 0.00 | 0.00 | 0.00 | 76 | 1009.3 |
| 20260505214359 | 11 | 312 | 9.7 | 24.1 | 0.00 | 0.00 | 0.00 | 78 | 1009.4 |
| 20260505213846 | 11 | 327 | 9.7 | 20.9 | 0.00 | 0.00 | 0.00 | 78 | 1009.4 |
| 20260505212404 | 11 | 355 | 9.7 | 20.9 | 0.00 | 0.00 | 0.00 | 78 | 1009.5 |
| 20260505211838 | 11 | 40 | 12.9 | 25.7 | 0.00 | 0.00 | 0.00 | 77 | 1009.5 |
| 20260505210359 | 11 | 61 | 11.3 | 27.4 | 0.00 | 0.00 | 0.00 | 78 | 1009.5 |
| 20260505205410 | 11 | 344 | 11.3 | 24.1 | 0.00 | 0.00 | 0.00 | 79 | 1009.6 |
| 20260505204844 | 11 | 337 | 9.7 | 20.9 | 0.00 | 0.00 | 0.00 | 79 | 1009.6 |
| 20260505203359 | 11 | 35 | 11.3 | 22.5 | 0.00 | 0.00 | 0.00 | 79 | 1009.5 |
| 20260505202359 | 11 | 345 | 9.7 | 19.3 | 0.00 | 0.00 | 0.00 | 80 | 1009.5 |
| 20260505201359 | 11 | 309 | 11.3 | 25.7 | 0.00 | 0.00 | 0.00 | 81 | 1009.4 |
| 20260505200358 | 11 | 306 | 11.3 | 20.9 | 0.00 | 0.00 | 0.00 | 82 | 1009.5 |
| 20260505195359 | 11 | 317 | 11.3 | 22.5 | 0.00 | 0.00 | 0.00 | 81 | 1009.4 |
| 20260505194359 | 11 | 42 | 11.3 | 20.9 | 0.00 | 0.00 | 0.00 | 81 | 1009.3 |
| 20260505193852 | 11 | 355 | 11.3 | 25.7 | 0.00 | 0.00 | 0.00 | 81 | 1009.3 |
| 20260505192843 | 11 | 315 | 11.3 | 30.6 | 0.00 | 0.00 | 0.00 | 80 | 1009.1 |
| 20260505191359 | 11 | 306 | 11.3 | 25.7 | 0.00 | 0.00 | 0.00 | 80 | 1009.2 |
| 20260505190403 | 11 | 346 | 11.3 | 30.6 | 0.00 | 0.00 | 0.00 | 80 | 1009.1 |
| 20260505185843 | 11 | 325 | 14.5 | 27.4 | 0.00 | 0.00 | 0.00 | 80 | 1009.0 |